STARLINK-33683, 63573

Orbit data source: Space-Track

STARLINK-33683, 63573 is a payload satellite owned by SpaceX/Seattle (US) in LEO that was launched on Mon, 14 Apr 2025 UTC via an FALCON 9 launch vehicle from the Air Force Eastern Test Range (AFETR). Payload-class satellites include a variety of spacecraft equipped with specific instruments for various scientific and technological missions. These include communications satellites like Starlink; space stations such as the ISS; scientific satellites like the Hubble; Earth observation satellites from companies like Planet Labs, Umbra, and HawkEye 360; GPS; miniature CubeSats for education and research; and military/defense satellites.

Loading next visibility...
Identifier
63573, 2025-076E
Orbit
LEO
Country
Flag of USUS
Related business
Manufacturer
SpaceX/Seattle
Mission
Operational Commercial Communications
Bus & Motor
STARLINK V2MO, Unknown motor
Mass
575 kg wet, ~530 kg dry
Launch date (UTC)
2025-04-14 (8 months ago)
Launch vehicle
FALCON 9
Launch site
Air Force Eastern Test Range (AFETR)
Object type
Payload
Rocket body
Debris
Shape & HBR
Box + 2 Pan, 17.7 m
Radar Cross Section
36.964 m², Large (>1 m²)

Expand to show TLE details & history
Last TLE update: 22 hours ago

TLE from 22 hours ago
0 STARLINK-33683
1 63573U 25076E   25347.68640014  .00034876  00000-0  12692-2 0  9994
2 63573  43.0024  87.7159 0001921 256.9036 103.1602 15.27625190 38675
Epoch: 2025-12-13T16:28Z
TLE epoch observation values (Epoch: 2025-12-13T16:28:24.972Z)
Latitude
0.00004°
Longitude
118.00179°
Altitude
482.99 km
Speed
7.626 km/s
True Right ascension
05h 50m 51s
True Declination
0° 00' 00"
Sunlit
Object was in full shadow at epoch
Visualization orbit readout
Latitude
Unknown
Longitude
Unknown
Altitude
Unknown
Speed
Unknown
Apparent Right ascension
Unknown
Apparent Declination
Unknown
Sunlit
N/A
Visualization observer readout
Local Sidereal Time
13:02:10
Azimuth
Unknown
Elevation
Unknown
Doppler factor
Unknown
Orbital elements
Apogee altitude
486.177 km
Perigee altitude
483.54 km
Semi-major axis
6,862.996 km
Eccentricity
0.00019
Inclination
43.0024°
RAAN
87.7159°
Arg. of periapsis
256.9036°
True anomaly
103.18163°
Mean anomaly
103.1602°
Eccentric anomaly
103.17092°
Mean motion
3.81744 °/min
Orbital period
94.3 mins
BSTAR
0.0012692
Loading maneuver chart data...
Computing Atmospheric mass density...
Loading historical data...
Loading historical data...
Loading historical data...
Loading historical data...
Loading historical data...
Loading historical data...
Loading historical data...

Documentation

Showing up to 5 results
|